Hourly Data Report for October 21, 2015

All times are specified in Local Standard Time (LST). Add 1 hour to adjust for Daylight Saving Time where and when it is observed.

WINNIPEG A CS
MANITOBA

49°55'00.000" N
97°14'58.000" W
238.70 m
502S001
71849
XWG

Download Data

Hourly Data (October 2015)
Hourly Data Report for October 21, 2015
Temp Definition
°C
Dew Point Temp Definition
°C
Rel Hum Definition
%
Wind Dir Definition
10's deg

Wind Spd Definition
km/h
Visibility Definition
km
Stn Press Definition
kPa
Hmdx Definition


Wind Chill Definition


Weather Definition


TIME
00:00 5.0 1.9 81 8 9   98.49     LegendNANA
01:00 4.8 2.3 84 5 8   98.47     LegendNANA
02:00 4.1 2.7 90 36 9   98.51     LegendNANA
03:00 4.3 2.6 89 1 5   98.50     LegendNANA
04:00 4.1 2.7 90 31 7   98.52     LegendNANA
05:00 3.8 2.9 94 31 11   98.56     LegendNANA
06:00 3.6 2.7 94 30 12   98.60     LegendNANA
07:00 3.7 2.8 94 29 14   98.65     LegendNANA
08:00 3.6 2.8 95 29 14   98.72     LegendNANA
09:00 6.6 5.3 92 30 19   98.78     LegendNANA
10:00 8.8 5.5 80 31 21   98.80     LegendNANA
11:00 9.8 5.6 75 29 20   98.82     LegendNANA
12:00 11.7 5.0 63 29 24   98.80     LegendNANA
13:00 12.8 4.0 55 29 28   98.75     LegendNANA
14:00 12.8 2.0 48 31 36   98.76     LegendNANA
15:00 12.8 0.7 44 30 35   98.79     LegendNANA
16:00 12.4 1.5 47 31 25   98.81     LegendNANA
17:00 9.8 1.8 58 33 14   98.84     LegendNANA
18:00 5.3 0.5 71 29 13   98.89     LegendNANA
19:00 2.6 -1.2 76 30 14   98.92     LegendNANA
20:00 2.0 -0.4 85 30 9   98.98     LegendNANA
21:00 2.5 0.1 84 28 12   99.02     LegendNANA
22:00 1.3 -0.2 90 1 11   99.10     LegendNANA
23:00 1.0 -0.1 92 1 9   99.15     LegendNANA

Notes on Data Quality.

Legend

  • E = Estimated
  • M = Missing
  • NA = Not Available
  • ‡ = Partner data that is not subject to review by the National Climate Archives
Date modified: